Location: ??????????
(54.7560°N, 39.1389°E)
Time: 07:59:11
(UTC+00:00)

Cosmos 494 Rocket - Pass Details

Date: 19 May 2025
Orbit: 737 x 767 km, 74.1° (Epoch: 23 June)

Event Time Altitude Azimuth Distance (km) Brightness Sun altitude
Exits shadow 22:27:58 21° 200° (SSW) 1,628 5.1 -13.9°
Maximum altitude 22:31:26 81° 115° (ESE) 762 3.9 -13.7°
Drops below altitude 10° 22:36:36 10° 29° (NNE) 2,283 7.9 -13.5°
Sets 22:38:59 0° 28° (NNE) 3,216 9.1 -13.4°
